"Pseudo-MPEC" for P11JI5h
Created 2023 Sep 23 17:22:15 UT using Find_Orb
Click here for an explanation of pseudo-MPECs
Astrometry: P11JI5h* C2023 09 16/Om\)v!(
Astrometry,,Z@_6=K^!8+.2o
redacted;?[:#0g4Lvc
F51 P11JI5h C2023 09 16s3FI4N/tbOZyG+7xv1dEPy_-/'A6#_c6+3%4vyvLYOM?fOqb`[.6
F51 P11JI5h C2023 09 16ZGxDN?4
click,$wvdd!xaUNg4$:-DC$a*9otNpLLyl`_J7[h7f=l
F51 P11JI5h 3C2023 09 18o*ZsxhqAFX%`'Thx:QLTjwk%em,dbUnC(FeyB1X!K_
hereU976-B
T14 P11JI5h 3C2023 09 18ba29S8Y.eeqt3:4Y!VjY1?g/0#qSeX?YeW8@@W_7Qr+S`dTT4NJ-
T14 P11JI5h 3C2023 09 18o4qL+Jk=DJ]Ub#us2Jh=#O[2k6Fs:-BNXn3]:+'dh\'EX
forajKO
T14 P11JI5h 3C2023 09 18b($C:J3:w(Gt
explanation0ZhD=(ODGqNp8N1]S`E\?BvC07t88
T14 P11JI5h KC2023 09 19.17103121 19 40.703-31 18 11.56 ~9J57 20.39GVNEOCPI52 P11JI5h KC2023 09 19.17722121 19 43.252-31 18 03.82 ~9J57 22.33GVNEOCPI52 P11JI5h KC2023 09 19.18960921 19 48.385-31 17 48.70 ~9J57 21.58GVNEOCPI52 P11JI5h KC2023 09 23.17594 21 51 54.04 -29 25 40.6 ~9N6q 20.5 RoNEOCP291 P11JI5h KC2023 09 23.18398 21 51 57.79 -29 25 23.4 ~9N6q 21.2 RoNEOCP291 P11JI5h KC2023 09 23.19204 21 52 01.60 -29 25 07.1 ~9N6q 21.6 RoNEOCP291 Station data: (291) LPL/Spacewatch II (N31.961669 W111.599905) US/Arizona. Observers J. V. Scotti, R. S. McMillan. 1.8-m f/2.7 reflector + CCD. (F51) Pan-STARRS 1, Haleakala (N20.707234 W156.255910) US/Hawaii. Observers J. Bulger, T. Lowe, A. Schultz, M. Willman. Measurers K. Chambers, S. Chastel, T. de Boer, L. Denneau, J. Fairlamb, H. Flewelling, M. Huber, C.-C. Lin, E. Magnier, Y. Ramanjooloo, R. Wainscoat, R. Weryk. 1.8-m Ritchey-Chrétien + CCD. (I52) Steward Observatory, Mt. Lemmon Station (N32.442544 W110.788920) US/Arizona. Observers T. A. Pruyne, B. M. Africano, E. J. Christensen, G. A. Farneth, D. C. Fuls, A. R. Gibbs, A. D. Grauer, H. Gröller, J. A. Johnson, R. A. Kowalski, S. M. Larson, G. J. Leonard, D. Rankin, R. L. Seaman, F. C. Shelly, K. W. Wierzchoś. 1.0-m prime focus + CCD. (T14) Mauna Kea-UH/Tholen NEO Follow-Up (CFHT) (N19.825252 W155.468876) US/Hawaii. Observer R. Weryk. 3.6-m Canada-France-Hawaii Telescope. Orbital elements: P11JI5h Perihelion 2023 Sep 25.28023 +/- 0.00451 TT = 6:43:32 (JD 2460212.78023) Epoch 2023 Sep 23.0 TT = JDT 2460210.5 Earth MOID: 0.0696 Ma: 0.0187 M 359.20820324 +/- 0.008 (J2000 ecliptic) AutoNEOCP n 0.34724351 +/- 0.00298 Peri. 290.08582 +/- 0.009 a 2.00468722 +/- 0.0115 Node 68.87013 +/- 0.025 e 0.4662341 +/- 0.00288 Incl. 1.31290 +/- 0.006 P 2.84 H 25.06 G 0.15 U 8.8 q 1.07003349 +/- 0.000358 Q 2.93934094 +/- 0.0226 From 13 observations 2023 Sept. 16-23; mean residual 0".15
Residuals in arcseconds: 230916 F51 .09+ .15- 230918 T14 .03- .04- 230923 291 .23+ .37- 230916 F51 .05+ .06+ 230918 T14 .05+ .03+ 230923 291 .22- .29+ 230916 F51 .13- .05+ 230919 I52 .01- .23+ 230923 291 .04+ .11- 230918 T14 .04- .01- 230919 I52 .12- .32+ 230918 T14 .02+ .01+ 230919 I52 .10+ .06- Ephemerides (geocentric): Date (UTC) HH RA Dec delta r elong mag " sig PA ---- -------- ------------ ------------ ------ ------ ----- --- -------- 2023 09 23 17 21 56 25.733 -29 04 54.73 .08698 1.0702 138.5 21.4 .550 155 2023 09 23 18 21 56 47.262 -29 03 21.30 .08694 1.0702 138.5 21.4 .555 154 2023 09 23 19 21 57 08.811 -29 01 47.49 .08689 1.0702 138.6 21.4 .559 153 2023 09 23 20 21 57 30.378 -29 00 13.27 .08685 1.0702 138.6 21.4 .564 152 2023 09 23 21 21 57 51.964 -28 58 38.66 .08681 1.0702 138.7 21.4 .569 151 2023 09 23 22 21 58 13.569 -28 57 03.65 .08677 1.0701 138.7 21.4 .575 150 2023 09 23 23 21 58 35.191 -28 55 28.25 .08673 1.0701 138.7 21.4 .580 149 2023 09 24 00 21 58 56.833 -28 53 52.44 .08668 1.0701 138.8 21.4 .586 148 2023 09 24 01 21 59 18.492 -28 52 16.24 .08664 1.0701 138.8 21.4 .592 147 2023 09 24 02 21 59 40.169 -28 50 39.64 .08660 1.0701 138.9 21.4 .598 147 2023 09 24 03 22 00 01.864 -28 49 02.65 .08656 1.0701 138.9 21.4 .604 146 2023 09 24 04 22 00 23.577 -28 47 25.25 .08652 1.0701 138.9 21.4 .611 145 2023 09 24 05 22 00 45.308 -28 45 47.46 .08648 1.0701 139.0 21.4 .617 144 2023 09 24 06 22 01 07.056 -28 44 09.26 .08644 1.0701 139.0 21.4 .624 143 2023 09 24 07 22 01 28.821 -28 42 30.67 .08640 1.0701 139.1 21.4 .631 142 2023 09 24 08 22 01 50.603 -28 40 51.68 .08636 1.0701 139.1 21.4 .638 141 2023 09 24 09 22 02 12.403 -28 39 12.29 .08632 1.0701 139.2 21.4 .646 140 2023 09 24 10 22 02 34.219 -28 37 32.50 .08628 1.0701 139.2 21.4 .653 140 2023 09 24 11 22 02 56.052 -28 35 52.31 .08624 1.0701 139.2 21.4 .661 139 2023 09 24 12 22 03 17.901 -28 34 11.72 .08620 1.0701 139.3 21.4 .669 138 2023 09 24 13 22 03 39.768 -28 32 30.73 .08616 1.0701 139.3 21.4 .677 137 2023 09 24 14 22 04 01.650 -28 30 49.34 .08613 1.0701 139.4 21.4 .686 136 2023 09 24 15 22 04 23.549 -28 29 07.55 .08609 1.0701 139.4 21.4 .694 136 2023 09 24 16 22 04 45.463 -28 27 25.36 .08605 1.0701 139.5 21.4 .703 135 2023 09 24 17 22 05 07.394 -28 25 42.77 .08601 1.0701 139.5 21.4 .712 134 2023 09 24 18 22 05 29.340 -28 23 59.78 .08597 1.0701 139.5 21.4 .721 133 2023 09 24 19 22 05 51.302 -28 22 16.38 .08594 1.0700 139.6 21.4 .731 132 2023 09 24 20 22 06 13.279 -28 20 32.59 .08590 1.0700 139.6 21.4 .740 132 2023 09 24 21 22 06 35.272 -28 18 48.40 .08586 1.0700 139.7 21.4 .750 131 2023 09 24 22 22 06 57.280 -28 17 03.80 .08583 1.0700 139.7 21.4 .760 130 2023 09 24 23 22 07 19.303 -28 15 18.81 .08579 1.0700 139.8 21.4 .770 129 2023 09 25 00 22 07 41.340 -28 13 33.41 .08575 1.0700 139.8 21.4 .781 129 2023 09 25 01 22 08 03.393 -28 11 47.62 .08572 1.0700 139.8 21.4 .791 128 2023 09 25 02 22 08 25.460 -28 10 01.42 .08568 1.0700 139.9 21.4 .802 127 2023 09 25 03 22 08 47.541 -28 08 14.82 .08565 1.0700 139.9 21.4 .813 127 2023 09 25 04 22 09 09.637 -28 06 27.82 .08561 1.0700 140.0 21.4 .825 126 2023 09 25 05 22 09 31.746 -28 04 40.42 .08558 1.0700 140.0 21.4 .836 125 2023 09 25 06 22 09 53.870 -28 02 52.62 .08554 1.0700 140.1 21.4 .848 125 2023 09 25 07 22 10 16.008 -28 01 04.42 .08551 1.0700 140.1 21.4 .859 124 2023 09 25 08 22 10 38.159 -27 59 15.81 .08547 1.0700 140.1 21.4 .872 123 2023 09 25 09 22 11 00.324 -27 57 26.81 .08544 1.0700 140.2 21.4 .884 123 2023 09 25 10 22 11 22.502 -27 55 37.41 .08540 1.0700 140.2 21.4 .896 122 2023 09 25 11 22 11 44.693 -27 53 47.60 .08537 1.0700 140.3 21.4 .909 122 2023 09 25 12 22 12 06.898 -27 51 57.40 .08534 1.0700 140.3 21.4 .922 121 2023 09 25 13 22 12 29.115 -27 50 06.79 .08530 1.0700 140.4 21.4 .935 120 2023 09 25 14 22 12 51.345 -27 48 15.79 .08527 1.0700 140.4 21.4 .948 120 2023 09 25 15 22 13 13.587 -27 46 24.38 .08524 1.0700 140.5 21.4 .962 119 2023 09 25 16 22 13 35.842 -27 44 32.58 .08520 1.0700 140.5 21.4 .975 119